| time (UTC) | temp F | wind direction | speed MPH | gust MPH | rain 1hr in | rain 24hr in | rain mn in | humidity % | barometer mb |
| 20260904180509 | 94 | 300 | 4.0 | 13.0 | 0.00 | 0.00 | 0.00 | 45 | 1011.2 |
| 20260904180008 | 94 | 160 | 8.0 | 15.0 | 0.00 | 0.00 | 0.00 | 44 | 1011.3 |
| 20260904175507 | 94 | 284 | 5.0 | 14.0 | 0.00 | 0.00 | 0.00 | 45 | 1011.4 |
| 20260904175009 | 94 | 170 | 4.0 | 14.0 | 0.00 | 0.00 | 0.00 | 44 | 1011.5 |
| 20260904174508 | 94 | 208 | 5.0 | 13.0 | 0.00 | 0.00 | 0.00 | 43 | 1011.6 |
| 20260904174007 | 94 | 181 | 5.0 | 17.0 | 0.00 | 0.00 | 0.00 | 44 | 1011.7 |
| 20260904173505 | 93 | 159 | 7.0 | 12.0 | 0.00 | 0.00 | 0.00 | 45 | 1011.8 |
| 20260904172510 | 93 | 217 | 6.0 | 12.0 | 0.00 | 0.00 | 0.00 | 45 | 1011.9 |
| 20260904172006 | 93 | 219 | 5.0 | 9.0 | 0.00 | 0.00 | 0.00 | 46 | 1012.0 |
| 20260904171504 | 92 | 262 | 2.0 | 12.0 | 0.00 | 0.00 | 0.00 | 46 | 1012.1 |
| 20260904171006 | 93 | 207 | 6.0 | 13.0 | 0.00 | 0.00 | 0.00 | 46 | 1012.1 |
| 20260904170505 | 93 | 232 | 5.0 | 11.0 | 0.00 | 0.00 | 0.00 | 46 | 1012.1 |
| 20260904170003 | 93 | 227 | 5.0 | 10.0 | 0.00 | 0.00 | 0.00 | 47 | 1012.2 |
| 20260904165503 | 93 | 211 | 5.0 | 11.0 | 0.00 | 0.00 | 0.00 | 47 | 1012.3 |
| 20260904165101 | 92 | 234 | 7.0 | 11.0 | 0.00 | 0.00 | 0.00 | 48 | 1012.3 |
| 20260904164600 | 91 | 217 | 2.0 | 14.0 | 0.00 | 0.00 | 0.00 | 48 | 1012.3 |
| 20260904164058 | 91 | 234 | 5.0 | 13.0 | 0.00 | 0.00 | 0.00 | 48 | 1012.3 |
| 20260904163557 | 91 | 202 | 6.0 | 17.0 | 0.00 | 0.00 | 0.00 | 49 | 1012.3 |
| 20260904162555 | 91 | 190 | 6.0 | 17.0 | 0.00 | 0.00 | 0.00 | 50 | 1012.3 |
| 20260904162054 | 90 | 227 | 8.0 | 15.0 | 0.00 | 0.00 | 0.00 | 51 | 1012.3 |
| 20260904161554 | 90 | 229 | 8.0 | 15.0 | 0.00 | 0.00 | 0.00 | 51 | 1012.3 |
| 20260904161053 | 90 | 200 | 7.0 | 13.0 | 0.00 | 0.00 | 0.00 | 51 | 1012.3 |
| 20260904160552 | 89 | 219 | 7.0 | 10.0 | 0.00 | 0.00 | 0.00 | 53 | 1012.3 |
| 20260904160054 | 89 | 225 | 4.0 | 8.0 | 0.00 | 0.00 | 0.00 | 55 | 1012.3 |
| 20260904155548 | 89 | 231 | 3.0 | 10.0 | 0.00 | 0.00 | 0.00 | 56 | 1012.3 |
| 20260904155048 | 88 | 224 | 4.0 | 13.0 | 0.00 | 0.00 | 0.00 | 58 | 1012.3 |
| 20260904154546 | 88 | 191 | 6.0 | 13.0 | 0.00 | 0.00 | 0.00 | 58 | 1012.4 |
| 20260904154046 | 88 | 200 | 5.0 | 10.0 | 0.00 | 0.00 | 0.00 | 58 | 1012.4 |
| 20260904153546 | 87 | 190 | 4.0 | 9.0 | 0.00 | 0.00 | 0.00 | 61 | 1012.5 |
| 20260904152545 | 86 | 246 | 3.0 | 10.0 | 0.00 | 0.00 | 0.00 | 61 | 1012.5 |
| 20260904152044 | 86 | 221 | 3.0 | 7.0 | 0.00 | 0.00 | 0.00 | 62 | 1012.4 |
| 20260904151544 | 86 | 218 | 4.0 | 7.0 | 0.00 | 0.00 | 0.00 | 62 | 1012.5 |
| 20260904151043 | 86 | 265 | 2.0 | 8.0 | 0.00 | 0.00 | 0.00 | 63 | 1012.5 |
| 20260904150542 | 86 | 147 | 5.0 | 8.0 | 0.00 | 0.00 | 0.00 | 63 | 1012.5 |
| 20260904150045 | 85 | 145 | 3.0 | 7.0 | 0.00 | 0.00 | 0.00 | 64 | 1012.5 |
| 20260904145541 | 85 | 217 | 3.0 | 9.0 | 0.00 | 0.00 | 0.00 | 64 | 1012.5 |
| 20260904145040 | 85 | 207 | 3.0 | 9.0 | 0.00 | 0.00 | 0.00 | 65 | 1012.4 |
| 20260904144539 | 84 | 201 | 4.0 | 7.0 | 0.00 | 0.00 | 0.00 | 65 | 1012.5 |
| 20260904144041 | 84 | 200 | 3.0 | 8.0 | 0.00 | 0.00 | 0.00 | 66 | 1012.5 |
| 20260904143536 | 84 | 173 | 3.0 | 8.0 | 0.00 | 0.00 | 0.00 | 66 | 1012.5 |
| 20260904142535 | 83 | 164 | 3.0 | 8.0 | 0.00 | 0.00 | 0.00 | 67 | 1012.4 |
| 20260904142035 | 83 | 204 | 2.0 | 7.0 | 0.00 | 0.00 | 0.00 | 68 | 1012.4 |
| 20260904141534 | 83 | 221 | 4.0 | 7.0 | 0.00 | 0.00 | 0.00 | 67 | 1012.5 |
| 20260904141034 | 83 | 185 | 5.0 | 7.0 | 0.00 | 0.00 | 0.00 | 67 | 1012.5 |
| 20260904140533 | 83 | 250 | 2.0 | 7.0 | 0.00 | 0.00 | 0.00 | 67 | 1012.5 |
| 20260904140041 | 83 | 251 | 2.0 | 6.0 | 0.00 | 0.00 | 0.00 | 68 | 1012.5 |
| 20260904135531 | 82 | 231 | 1.0 | 5.0 | 0.00 | 0.00 | 0.00 | 69 | 1012.4 |
| 20260904135033 | 82 | 229 | 1.0 | 4.0 | 0.00 | 0.00 | 0.00 | 70 | 1012.4 |
| 20260904134528 | 81 | 128 | 0.0 | 3.0 | 0.00 | 0.00 | 0.00 | 71 | 1012.4 |
| 20260904134031 | 81 | 128 | 2.0 | 4.0 | 0.00 | 0.00 | 0.00 | 71 | 1012.4 |
| 20260904133525 | 80 | 128 | 2.0 | 4.0 | 0.00 | 0.00 | 0.00 | 72 | 1012.4 |
| 20260904132526 | 80 | 139 | 1.0 | 4.0 | 0.00 | 0.00 | 0.00 | 73 | 1012.3 |
| 20260904132025 | 79 | 140 | 1.0 | 3.0 | 0.00 | 0.00 | 0.00 | 74 | 1012.3 |
| 20260904131522 | 78 | 140 | 1.0 | 4.0 | 0.00 | 0.00 | 0.00 | 75 | 1012.2 |
| 20260904131022 | 78 | 140 | 2.0 | 4.0 | 0.00 | 0.00 | 0.00 | 76 | 1012.1 |
| 20260904130521 | 77 | 140 | 2.0 | 4.0 | 0.00 | 0.00 | 0.00 | 77 | 1012.1 |
| 20260904130033 | 77 | 141 | 1.0 | 3.0 | 0.00 | 0.00 | 0.00 | 79 | 1012.0 |
| 20260904125520 | 76 | 140 | 0.0 | 3.0 | 0.00 | 0.00 | 0.00 | 81 | 1012.1 |
| 20260904125020 | 75 | 140 | 0.0 | 3.0 | 0.00 | 0.00 | 0.00 | 82 | 1012.1 |
| 20260904124519 | 75 | 141 | 0.0 | 0.0 | 0.00 | 0.00 | 0.00 | 83 | 1012.1 |
| 20260904124019 | 74 | 140 | 0.0 | 0.0 | 0.00 | 0.00 | 0.00 | 83 | 1012.1 |
| 20260904123520 | 73 | 141 | 0.0 | 0.0 | 0.00 | 0.00 | 0.00 | 85 | 1012.0 |
| 20260904122518 | 72 | 142 | 0.0 | 0.0 | 0.00 | 0.00 | 0.00 | 85 | 1011.8 |
| 20260904122020 | 72 | 142 | 0.0 | 0.0 | 0.00 | 0.00 | 0.00 | 85 | 1011.8 |
| 20260904121517 | 71 | 142 | 0.0 | 0.0 | 0.00 | 0.00 | 0.00 | 86 | 1011.7 |
| 20260904121016 | 71 | 142 | 0.0 | 0.0 | 0.00 | 0.00 | 0.00 | 86 | 1011.5 |
| 20260904120517 | 71 | 142 | 0.0 | 0.0 | 0.00 | 0.00 | 0.00 | 86 | 1011.6 |
| 20260904120019 | 71 | 142 | 0.0 | 0.0 | 0.00 | 0.00 | 0.00 | 86 | 1011.5 |
| 20260904115515 | 71 | 142 | 0.0 | 0.0 | 0.00 | 0.00 | 0.00 | 85 | 1011.6 |
| 20260904115015 | 71 | 142 | 0.0 | 0.0 | 0.00 | 0.00 | 0.00 | 85 | 1011.7 |
| 20260904114515 | 71 | 142 | 0.0 | 0.0 | 0.00 | 0.00 | 0.00 | 85 | 1011.6 |
| 20260904114013 | 71 | 142 | 0.0 | 0.0 | 0.00 | 0.00 | 0.00 | 84 | 1011.5 |
| 20260904113513 | 72 | 142 | 0.0 | 0.0 | 0.00 | 0.00 | 0.00 | 84 | 1011.5 |
| 20260904112511 | 72 | 142 | 0.0 | 0.0 | 0.00 | 0.00 | 0.00 | 83 | 1011.5 |
| 20260904112011 | 72 | 142 | 0.0 | 0.0 | 0.00 | 0.00 | 0.00 | 82 | 1011.5 |
| 20260904111518 | 72 | 142 | 0.0 | 0.0 | 0.00 | 0.00 | 0.00 | 81 | 1011.3 |
| 20260904111008 | 73 | 142 | 0.0 | 0.0 | 0.00 | 0.00 | 0.00 | 81 | 1011.4 |
| 20260904110508 | 73 | 142 | 0.0 | 0.0 | 0.00 | 0.00 | 0.00 | 81 | 1011.5 |
| 20260904110008 | 73 | 142 | 0.0 | 0.0 | 0.00 | 0.00 | 0.00 | 82 | 1011.5 |
| 20260904105508 | 73 | 142 | 0.0 | 0.0 | 0.00 | 0.00 | 0.00 | 81 | 1011.4 |
| 20260904105007 | 73 | 142 | 0.0 | 0.0 | 0.00 | 0.00 | 0.00 | 81 | 1011.4 |
| 20260904104506 | 73 | 142 | 0.0 | 0.0 | 0.00 | 0.00 | 0.00 | 80 | 1011.3 |
| 20260904104009 | 74 | 142 | 0.0 | 0.0 | 0.00 | 0.00 | 0.00 | 79 | 1011.2 |
| 20260904103504 | 74 | 142 | 0.0 | 0.0 | 0.00 | 0.00 | 0.00 | 79 | 1011.1 |
| 20260904102507 | 74 | 142 | 0.0 | 0.0 | 0.00 | 0.00 | 0.00 | 79 | 1011.2 |
| 20260904102004 | 74 | 142 | 0.0 | 0.0 | 0.00 | 0.00 | 0.00 | 80 | 1011.1 |
| 20260904101504 | 74 | 142 | 0.0 | 0.0 | 0.00 | 0.00 | 0.00 | 80 | 1011.1 |
| 20260904101004 | 74 | 142 | 0.0 | 2.0 | 0.00 | 0.00 | 0.00 | 80 | 1011.0 |
| 20260904100505 | 74 | 142 | 0.0 | 3.0 | 0.00 | 0.00 | 0.00 | 80 | 1011.0 |
| 20260904100003 | 74 | 142 | 1.0 | 3.0 | 0.00 | 0.00 | 0.00 | 80 | 1010.9 |
| 20260904095503 | 74 | 141 | 1.0 | 3.0 | 0.00 | 0.00 | 0.00 | 79 | 1010.9 |
| 20260904095002 | 74 | 141 | 2.0 | 3.0 | 0.00 | 0.00 | 0.00 | 79 | 1010.9 |
| 20260904094502 | 74 | 141 | 0.0 | 3.0 | 0.00 | 0.00 | 0.00 | 79 | 1010.9 |
| 20260904094001 | 74 | 141 | 0.0 | 3.0 | 0.00 | 0.00 | 0.00 | 79 | 1010.9 |
| 20260904093502 | 74 | 141 | 1.0 | 3.0 | 0.00 | 0.00 | 0.00 | 79 | 1010.9 |
| 20260904092501 | 74 | 140 | 1.0 | 3.0 | 0.00 | 0.00 | 0.00 | 79 | 1010.6 |
| 20260904092001 | 74 | 140 | 1.0 | 3.0 | 0.00 | 0.00 | 0.00 | 78 | 1010.7 |
| 20260904091600 | 74 | 140 | 1.0 | 2.0 | 0.00 | 0.00 | 0.00 | 78 | 1010.6 |
| 20260904091501 | 74 | 140 | 1.0 | 2.0 | 0.00 | 0.00 | 0.00 | 78 | 1010.6 |
| 20260904091059 | 75 | 140 | 0.0 | 0.0 | 0.00 | 0.00 | 0.00 | 77 | 1010.6 |
| 20260904090559 | 75 | 140 | 0.0 | 0.0 | 0.00 | 0.00 | 0.00 | 77 | 1010.8 |
| 20260904090100 | 75 | 140 | 0.0 | 0.0 | 0.00 | 0.00 | 0.00 | 77 | 1010.8 |
| 20260904085559 | 75 | 141 | 0.0 | 2.0 | 0.00 | 0.00 | 0.00 | 77 | 1010.8 |
| 20260904085101 | 75 | 141 | 0.0 | 3.0 | 0.00 | 0.00 | 0.00 | 77 | 1010.8 |
| 20260904084600 | 75 | 140 | 0.0 | 2.0 | 0.00 | 0.00 | 0.00 | 77 | 1010.7 |
| 20260904084059 | 75 | 140 | 0.0 | 1.0 | 0.00 | 0.00 | 0.00 | 77 | 1010.7 |
| 20260904083559 | 75 | 138 | 0.0 | 0.0 | 0.00 | 0.00 | 0.00 | 77 | 1010.7 |
| 20260904082558 | 75 | 138 | 0.0 | 2.0 | 0.00 | 0.00 | 0.00 | 77 | 1010.7 |
| 20260904082059 | 75 | 138 | 0.0 | 3.0 | 0.00 | 0.00 | 0.00 | 76 | 1010.8 |
| 20260904081558 | 75 | 138 | 1.0 | 2.0 | 0.00 | 0.00 | 0.00 | 76 | 1010.8 |
| 20260904081100 | 75 | 138 | 0.0 | 1.0 | 0.00 | 0.00 | 0.00 | 76 | 1010.8 |
| 20260904080558 | 75 | 138 | 0.0 | 0.0 | 0.00 | 0.00 | 0.00 | 76 | 1010.8 |
| 20260904080058 | 75 | 138 | 0.0 | 0.0 | 0.00 | 0.00 | 0.00 | 76 | 1010.6 |
| 20260904075557 | 75 | 138 | 0.0 | 0.0 | 0.00 | 0.00 | 0.00 | 76 | 1010.6 |
| 20260904075058 | 75 | 138 | 0.0 | 0.0 | 0.00 | 0.00 | 0.00 | 76 | 1010.6 |
| 20260904074611 | 75 | 138 | 0.0 | 0.0 | 0.00 | 0.00 | 0.00 | 77 | 1010.7 |
| 20260904074058 | 75 | 138 | 0.0 | 2.0 | 0.00 | 0.00 | 0.00 | 77 | 1010.7 |
| 20260904073558 | 75 | 138 | 0.0 | 4.0 | 0.00 | 0.00 | 0.00 | 77 | 1010.7 |
| 20260904072559 | 75 | 138 | 2.0 | 4.0 | 0.00 | 0.00 | 0.00 | 76 | 1010.7 |
| 20260904072057 | 75 | 149 | 2.0 | 5.0 | 0.00 | 0.00 | 0.00 | 76 | 1010.6 |
| 20260904071556 | 76 | 149 | 2.0 | 3.0 | 0.00 | 0.00 | 0.00 | 75 | 1010.7 |
| 20260904071059 | 76 | 150 | 0.0 | 2.0 | 0.00 | 0.00 | 0.00 | 75 | 1010.7 |
| 20260904070555 | 76 | 150 | 0.0 | 1.0 | 0.00 | 0.00 | 0.00 | 74 | 1010.7 |
| 20260904070055 | 76 | 150 | 0.0 | 2.0 | 0.00 | 0.00 | 0.00 | 74 | 1010.7 |
| 20260904065557 | 76 | 150 | 0.0 | 2.0 | 0.00 | 0.00 | 0.00 | 74 | 1010.8 |
| 20260904065057 | 76 | 151 | 0.0 | 0.0 | 0.00 | 0.00 | 0.00 | 73 | 1010.8 |
| 20260904064554 | 76 | 150 | 0.0 | 0.0 | 0.00 | 0.00 | 0.00 | 72 | 1010.7 |
| 20260904064052 | 77 | 150 | 0.0 | 0.0 | 0.00 | 0.00 | 0.00 | 72 | 1010.8 |
| 20260904063552 | 77 | 150 | 0.0 | 0.0 | 0.00 | 0.00 | 0.00 | 72 | 1010.7 |
| 20260904062552 | 77 | 150 | 0.0 | 0.0 | 0.00 | 0.00 | 0.00 | 72 | 1010.8 |
| 20260904062050 | 77 | 150 | 0.0 | 0.0 | 0.00 | 0.00 | 0.00 | 72 | 1010.8 |
| 20260904061549 | 78 | 150 | 0.0 | 0.0 | 0.00 | 0.00 | 0.00 | 71 | 1010.8 |
| 20260904061051 | 78 | 150 | 0.0 | 0.0 | 0.00 | 0.00 | 0.00 | 69 | 1010.7 |
| 20260904060548 | 78 | 150 | 0.0 | 0.0 | 0.00 | 0.00 | 0.00 | 69 | 1010.7 |
| 20260904060048 | 78 | 150 | 0.0 | 0.0 | 0.00 | 0.00 | 0.00 | 69 | 1010.6 |
| 20260904055547 | 78 | 150 | 0.0 | 0.0 | 0.00 | 0.00 | 0.00 | 69 | 1010.6 |
| 20260904055047 | 78 | 150 | 0.0 | 0.0 | 0.00 | 0.00 | 0.00 | 69 | 1010.6 |
| 20260904054547 | 78 | 150 | 0.0 | 0.0 | 0.00 | 0.00 | 0.00 | 69 | 1010.6 |
| 20260904054050 | 78 | 150 | 0.0 | 0.0 | 0.00 | 0.00 | 0.00 | 69 | 1010.6 |
| 20260904053545 | 78 | 150 | 0.0 | 0.0 | 0.00 | 0.00 | 0.00 | 69 | 1010.6 |
| 20260904052544 | 78 | 150 | 0.0 | 0.0 | 0.00 | 0.00 | 0.00 | 68 | 1010.5 |
| 20260904052044 | 79 | 150 | 0.0 | 2.0 | 0.00 | 0.00 | 0.00 | 68 | 1010.5 |
| 20260904051557 | 79 | 150 | 0.0 | 2.0 | 0.00 | 0.00 | 0.00 | 67 | 1010.4 |
| 20260904051042 | 79 | 150 | 1.0 | 2.0 | 0.00 | 0.00 | 0.00 | 67 | 1010.4 |
| 20260904050542 | 79 | 150 | 1.0 | 3.0 | 0.00 | 0.00 | 0.00 | 67 | 1010.5 |
| 20260904050041 | 79 | 150 | 1.0 | 3.0 | 0.00 | 0.00 | 0.00 | 67 | 1010.5 |
| 20260904045541 | 79 | 150 | 2.0 | 3.0 | 0.00 | 0.00 | 0.00 | 66 | 1010.5 |
| 20260904045042 | 79 | 150 | 1.0 | 3.0 | 0.00 | 0.00 | 0.00 | 66 | 1010.5 |
| 20260904044541 | 80 | 151 | 1.0 | 2.0 | 0.00 | 0.00 | 0.00 | 65 | 1010.5 |
| 20260904044040 | 80 | 152 | 0.0 | 1.0 | 0.00 | 0.00 | 0.00 | 65 | 1010.5 |
| 20260904043540 | 80 | 152 | 0.0 | 1.0 | 0.00 | 0.00 | 0.00 | 64 | 1010.4 |
| 20260904042541 | 81 | 134 | 0.0 | 0.0 | 0.00 | 0.00 | 0.00 | 64 | 1010.4 |
| 20260904042041 | 81 | 134 | 0.0 | 2.0 | 0.00 | 0.00 | 0.00 | 63 | 1010.5 |
| 20260904041543 | 81 | 134 | 0.0 | 2.0 | 0.00 | 0.00 | 0.00 | 63 | 1010.4 |
| 20260904041040 | 81 | 134 | 1.0 | 2.0 | 0.00 | 0.00 | 0.00 | 63 | 1010.4 |
| 20260904040545 | 81 | 134 | 1.0 | 2.0 | 0.00 | 0.00 | 0.00 | 64 | 1010.4 |
| 20260904040045 | 81 | 134 | 1.0 | 2.0 | 0.00 | 0.00 | 0.00 | 64 | 1010.3 |
| 20260904035541 | 81 | 134 | 1.0 | 3.0 | 0.00 | 0.00 | 0.00 | 64 | 1010.2 |
| 20260904035041 | 81 | 134 | 1.0 | 4.0 | 0.00 | 0.00 | 0.00 | 63 | 1010.2 |
| 20260904034540 | 81 | 134 | 2.0 | 4.0 | 0.00 | 0.00 | 0.00 | 63 | 1010.2 |
| 20260904034043 | 81 | 134 | 2.0 | 4.0 | 0.00 | 0.00 | 0.00 | 62 | 1010.2 |
| 20260904033541 | 82 | 138 | 2.0 | 4.0 | 0.00 | 0.00 | 0.00 | 62 | 1010.2 |
| 20260904032539 | 82 | 154 | 3.0 | 6.0 | 0.00 | 0.00 | 0.00 | 61 | 1010.3 |
| 20260904032039 | 82 | 157 | 3.0 | 5.0 | 0.00 | 0.00 | 0.00 | 61 | 1010.3 |
| 20260904031540 | 82 | 157 | 4.0 | 5.0 | 0.00 | 0.00 | 0.00 | 60 | 1010.3 |
| 20260904031039 | 82 | 157 | 4.0 | 5.0 | 0.00 | 0.00 | 0.00 | 60 | 1010.2 |
| 20260904030540 | 82 | 157 | 2.0 | 3.0 | 0.00 | 0.00 | 0.00 | 59 | 1010.2 |
| 20260904030039 | 83 | 155 | 1.0 | 3.0 | 0.00 | 0.00 | 0.00 | 59 | 1010.2 |
| 20260904025539 | 83 | 155 | 2.0 | 3.0 | 0.00 | 0.00 | 0.00 | 59 | 1010.1 |
| 20260904025040 | 83 | 155 | 2.0 | 3.0 | 0.00 | 0.00 | 0.00 | 59 | 1010.1 |
| 20260904024539 | 83 | 155 | 2.0 | 5.0 | 0.00 | 0.00 | 0.00 | 58 | 1010.1 |
| 20260904024040 | 83 | 155 | 2.0 | 5.0 | 0.00 | 0.00 | 0.00 | 58 | 1010.0 |
| 20260904023538 | 84 | 155 | 2.0 | 4.0 | 0.00 | 0.00 | 0.00 | 57 | 1009.9 |
| 20260904022539 | 84 | 155 | 2.0 | 5.0 | 0.00 | 0.00 | 0.00 | 56 | 1009.7 |
| 20260904022040 | 84 | 155 | 2.0 | 5.0 | 0.00 | 0.00 | 0.00 | 55 | 1009.7 |
| 20260904021539 | 85 | 155 | 2.0 | 5.0 | 0.00 | 0.00 | 0.00 | 55 | 1009.6 |
| 20260904021041 | 85 | 155 | 2.0 | 5.0 | 0.00 | 0.00 | 0.00 | 54 | 1009.6 |
| 20260904020539 | 85 | 155 | 2.0 | 6.0 | 0.00 | 0.00 | 0.00 | 54 | 1009.4 |
| 20260904020038 | 86 | 155 | 3.0 | 6.0 | 0.00 | 0.00 | 0.00 | 53 | 1009.3 |
| 20260904015537 | 86 | 163 | 4.0 | 6.0 | 0.00 | 0.00 | 0.00 | 53 | 1009.3 |
| 20260904015037 | 86 | 155 | 2.0 | 6.0 | 0.00 | 0.00 | 0.00 | 53 | 1009.2 |
| 20260904014544 | 86 | 154 | 3.0 | 6.0 | 0.00 | 0.00 | 0.00 | 52 | 1009.2 |
| 20260904014040 | 86 | 154 | 3.0 | 6.0 | 0.00 | 0.00 | 0.00 | 52 | 1009.1 |
| 20260904013541 | 86 | 158 | 3.0 | 6.0 | 0.00 | 0.00 | 0.00 | 52 | 1009.1 |
| 20260904012536 | 87 | 164 | 3.0 | 5.0 | 0.00 | 0.00 | 0.00 | 51 | 1008.8 |
| 20260904012035 | 87 | 164 | 3.0 | 4.0 | 0.00 | 0.00 | 0.00 | 51 | 1008.7 |
| 20260904011538 | 88 | 164 | 3.0 | 5.0 | 0.00 | 0.00 | 0.00 | 50 | 1008.7 |
| 20260904011035 | 88 | 164 | 3.0 | 5.0 | 0.00 | 0.00 | 0.00 | 49 | 1008.7 |
| 20260904010538 | 89 | 164 | 3.0 | 5.0 | 0.00 | 0.00 | 0.00 | 48 | 1008.6 |
| 20260904010045 | 90 | 164 | 4.0 | 6.0 | 0.00 | 0.00 | 0.00 | 47 | 1008.6 |
| 20260904005537 | 90 | 164 | 3.0 | 6.0 | 0.00 | 0.00 | 0.00 | 47 | 1008.5 |
| 20260904005035 | 90 | 169 | 3.0 | 7.0 | 0.00 | 0.00 | 0.00 | 46 | 1008.5 |
| 20260904004535 | 91 | 163 | 5.0 | 10.0 | 0.00 | 0.00 | 0.00 | 45 | 1008.5 |
| 20260904004035 | 91 | 155 | 5.0 | 10.0 | 0.00 | 0.00 | 0.00 | 45 | 1008.4 |
| 20260904003534 | 92 | 146 | 7.0 | 14.0 | 0.00 | 0.00 | 0.00 | 44 | 1008.5 |
| 20260904002535 | 92 | 165 | 8.0 | 14.0 | 0.00 | 0.00 | 0.00 | 44 | 1008.4 |
| 20260904002038 | 93 | 150 | 9.0 | 14.0 | 0.00 | 0.00 | 0.00 | 43 | 1008.4 |
| 20260904001540 | 93 | 168 | 9.0 | 14.0 | 0.00 | 0.00 | 0.00 | 43 | 1008.4 |
| 20260904001035 | 93 | 165 | 6.0 | 11.0 | 0.00 | 0.00 | 0.00 | 43 | 1008.4 |
| 20260904000534 | 94 | 169 | 5.0 | 11.0 | 0.00 | 0.00 | 0.00 | 43 | 1008.4 |
| 20260904000044 | 94 | 167 | 6.0 | 15.0 | 0.00 | 0.00 | 0.00 | 42 | 1008.4 |
| 20260903235538 | 94 | 138 | 7.0 | 15.0 | 0.00 | 0.00 | 0.00 | 42 | 1008.4 |
| 20260903235034 | 95 | 156 | 6.0 | 11.0 | 0.00 | 0.00 | 0.00 | 42 | 1008.4 |
| 20260903234534 | 95 | 170 | 4.0 | 8.0 | 0.00 | 0.00 | 0.00 | 42 | 1008.4 |
| 20260903234037 | 95 | 221 | 3.0 | 8.0 | 0.00 | 0.00 | 0.00 | 41 | 1008.4 |
| 20260903233536 | 95 | 161 | 4.0 | 9.0 | 0.00 | 0.00 | 0.00 | 41 | 1008.3 |
| 20260903232534 | 95 | 224 | 4.0 | 14.0 | 0.00 | 0.00 | 0.00 | 42 | 1008.3 |
| 20260903232034 | 95 | 198 | 5.0 | 13.0 | 0.00 | 0.00 | 0.00 | 41 | 1008.3 |
| 20260903231534 | 95 | 187 | 7.0 | 12.0 | 0.00 | 0.00 | 0.00 | 41 | 1008.3 |
| 20260903231034 | 95 | 161 | 8.0 | 12.0 | 0.00 | 0.00 | 0.00 | 41 | 1008.2 |
| 20260903230534 | 95 | 165 | 7.0 | 14.0 | 0.00 | 0.00 | 0.00 | 41 | 1008.2 |
| 20260903230033 | 95 | 136 | 9.0 | 13.0 | 0.00 | 0.00 | 0.00 | 41 | 1008.3 |
| 20260903225535 | 96 | 177 | 7.0 | 10.0 | 0.00 | 0.00 | 0.00 | 41 | 1008.2 |
| 20260903225035 | 96 | 163 | 8.0 | 15.0 | 0.00 | 0.00 | 0.00 | 41 | 1008.2 |
| 20260903224533 | 96 | 139 | 8.0 | 15.0 | 0.00 | 0.00 | 0.00 | 40 | 1008.2 |
| 20260903224035 | 96 | 180 | 7.0 | 15.0 | 0.00 | 0.00 | 0.00 | 40 | 1008.1 |
| 20260903223532 | 96 | 168 | 5.0 | 11.0 | 0.00 | 0.00 | 0.00 | 40 | 1008.2 |
| 20260903222533 | 96 | 134 | 8.0 | 16.0 | 0.00 | 0.00 | 0.00 | 40 | 1008.1 |
| 20260903222035 | 96 | 155 | 6.0 | 14.0 | 0.00 | 0.00 | 0.00 | 40 | 1008.1 |
| 20260903221532 | 96 | 163 | 8.0 | 18.0 | 0.00 | 0.00 | 0.00 | 40 | 1008.1 |
| 20260903221031 | 96 | 176 | 12.0 | 18.0 | 0.00 | 0.00 | 0.00 | 39 | 1008.2 |
| 20260903220530 | 96 | 150 | 7.0 | 17.0 | 0.00 | 0.00 | 0.00 | 40 | 1008.2 |
| 20260903220031 | 96 | 167 | 10.0 | 15.0 | 0.00 | 0.00 | 0.00 | 40 | 1008.2 |
| 20260903215530 | 96 | 177 | 7.0 | 14.0 | 0.00 | 0.00 | 0.00 | 40 | 1008.3 |
| 20260903215030 | 96 | 208 | 5.0 | 12.0 | 0.00 | 0.00 | 0.00 | 41 | 1008.3 |
| 20260903214530 | 96 | 182 | 6.0 | 14.0 | 0.00 | 0.00 | 0.00 | 40 | 1008.3 |
| 20260903214030 | 97 | 191 | 9.0 | 14.0 | 0.00 | 0.00 | 0.00 | 40 | 1008.4 |
| 20260903213530 | 96 | 233 | 9.0 | 16.0 | 0.00 | 0.00 | 0.00 | 41 | 1008.4 |
| 20260903212529 | 95 | 149 | 9.0 | 19.0 | 0.00 | 0.00 | 0.00 | 42 | 1008.7 |
| 20260903212030 | 96 | 148 | 13.0 | 19.0 | 0.00 | 0.00 | 0.00 | 41 | 1008.7 |
| 20260903211628 | 96 | 196 | 5.0 | 13.0 | 0.00 | 0.00 | 0.00 | 41 | 1008.5 |
| 20260903211027 | 97 | 157 | 8.0 | 13.0 | 0.00 | 0.00 | 0.00 | 40 | 1008.7 |
| 20260903210528 | 97 | 169 | 8.0 | 16.0 | 0.00 | 0.00 | 0.00 | 40 | 1008.7 |
| 20260903210027 | 97 | 196 | 9.0 | 16.0 | 0.00 | 0.00 | 0.00 | 40 | 1008.8 |
| 20260903205525 | 97 | 181 | 6.0 | 17.0 | 0.00 | 0.00 | 0.00 | 41 | 1008.8 |
| 20260903205025 | 97 | 214 | 7.0 | 17.0 | 0.00 | 0.00 | 0.00 | 41 | 1008.8 |
| 20260903204530 | 97 | 211 | 6.0 | 15.0 | 0.00 | 0.00 | 0.00 | 40 | 1008.8 |
| 20260903204125 | 97 | 211 | 9.0 | 15.0 | 0.00 | 0.00 | 0.00 | 40 | 1008.9 |
| 20260903203524 | 97 | 167 | 9.0 | 13.0 | 0.00 | 0.00 | 0.00 | 40 | 1009.0 |
| 20260903202523 | 97 | 184 | 9.0 | 17.0 | 0.00 | 0.00 | 0.00 | 40 | 1009.0 |
| 20260903202027 | 97 | 223 | 8.0 | 12.0 | 0.00 | 0.00 | 0.00 | 40 | 1009.1 |
| 20260903201522 | 97 | 219 | 5.0 | 16.0 | 0.00 | 0.00 | 0.00 | 41 | 1009.1 |
| 20260903201022 | 96 | 270 | 4.0 | 16.0 | 0.00 | 0.00 | 0.00 | 41 | 1009.1 |
| 20260903200521 | 97 | 162 | 5.0 | 14.0 | 0.00 | 0.00 | 0.00 | 41 | 1009.2 |
| 20260903200019 | 96 | 230 | 5.0 | 21.0 | 0.00 | 0.00 | 0.00 | 42 | 1009.2 |
| 20260903195519 | 96 | 146 | 11.0 | 21.0 | 0.00 | 0.00 | 0.00 | 42 | 1009.2 |
| 20260903195020 | 96 | 224 | 4.0 | 14.0 | 0.00 | 0.00 | 0.00 | 42 | 1009.2 |
| 20260903194515 | 96 | 186 | 5.0 | 17.0 | 0.00 | 0.00 | 0.00 | 42 | 1009.3 |
| 20260903194014 | 95 | 261 | 6.0 | 17.0 | 0.00 | 0.00 | 0.00 | 41 | 1009.4 |
| 20260903193514 | 96 | 214 | 6.0 | 15.0 | 0.00 | 0.00 | 0.00 | 42 | 1009.4 |
| 20260903192512 | 95 | 297 | 6.0 | 15.0 | 0.00 | 0.00 | 0.00 | 42 | 1009.6 |
| 20260903192015 | 95 | 151 | 7.0 | 20.0 | 0.00 | 0.00 | 0.00 | 42 | 1009.6 |
| 20260903191512 | 95 | 184 | 9.0 | 20.0 | 0.00 | 0.00 | 0.00 | 42 | 1009.7 |
| 20260903191012 | 95 | 183 | 8.0 | 18.0 | 0.00 | 0.00 | 0.00 | 41 | 1009.7 |
| 20260903190513 | 95 | 157 | 11.0 | 17.0 | 0.00 | 0.00 | 0.00 | 41 | 1009.8 |
| 20260903190012 | 95 | 246 | 6.0 | 15.0 | 0.00 | 0.00 | 0.00 | 42 | 1009.9 |
| 20260903185509 | 95 | 159 | 9.0 | 18.0 | 0.00 | 0.00 | 0.00 | 42 | 1009.9 |
| 20260903185009 | 95 | 194 | 5.0 | 18.0 | 0.00 | 0.00 | 0.00 | 42 | 1010.0 |
| 20260903184509 | 95 | 177 | 11.0 | 19.0 | 0.00 | 0.00 | 0.00 | 41 | 1009.8 |
| 20260903184008 | 95 | 225 | 4.0 | 16.0 | 0.00 | 0.00 | 0.00 | 42 | 1010.1 |
| 20260903183509 | 95 | 232 | 8.0 | 16.0 | 0.00 | 0.00 | 0.00 | 42 | 1010.1 |
| 20260903182506 | 95 | 179 | 7.0 | 17.0 | 0.00 | 0.00 | 0.00 | 43 | 1010.3 |
| 20260903182005 | 94 | 179 | 7.0 | 17.0 | 0.00 | 0.00 | 0.00 | 44 | 1010.3 |
| 20260903181503 | 94 | 190 | 7.0 | 14.0 | 0.00 | 0.00 | 0.00 | 44 | 1010.5 |
| 20260903181002 | 93 | 194 | 6.0 | 17.0 | 0.00 | 0.00 | 0.00 | 44 | 1010.5 |